Погода в Гостищево

Россия / Белгородская область     50°46′37″N   36°39′15″E
темп.,
°C
ветер,
м/с
пор.,
м/с
влажн.,
%
обл.,
%
осадки,
мм/ч
давл.,
гПа
погр.,
м
29 июня, ср
ср2900:00+19всв410895 0.0 1018230
03:00+17всв3989100 0.0 1018212
06:00+17св488626 0.0 1018196
09:00+22всв466797 0.0 1019600
12:00+23в445751 0.0 10191161
15:00+25всв3352100 0.0 10191564
18:00+24всв236060 0.0 10171052
21:00+19св2272100 0.0 101718
30 июня, чт
чт3000:00+17всв3674100 0.0 1018101
03:00+16всв1181100 0.0 101815
06:00+16зюз1182100 0.0 101748
09:00+18с2276100 0.0 1018318
12:00+23с335610 0.1 10171482
15:00+24ссв44460 0.1 10161955
18:00+22ссв575923 0.0 1016738
21:00+17ссв356925 0.0 101762
1 июля, пт
пт100:00+15с34765 0.0 101751
03:00+14с3582100 0.0 101789
06:00+15с37840 0.0 1018165
09:00+20с57620 0.0 1018601
12:00+23ссв79440 0.0 10182051
15:00+23ссв710454 0.0 10172420
18:00+20ссв69555 0.0 10181288
21:00+14св49710 0.0 1020174
2 июля, сб
сб200:00+12св35760 0.0 102278
03:00+10с33760 0.0 102235
06:00+11с36750 0.0 1023136
09:00+17с56550 0.0 1023618
12:00+20с56440 0.0 10221530
15:00+22с56453 0.0 10211756
18:00+22с47565 0.0 10211629
21:00+17ссз22745 0.0 102116
3 июля, вс
вс300:00+15сз22815 0.0 102011
03:00+14зсз2286100 0.0 102024
06:00+16зсз38885 0.0 1020201
09:00+23сз57685 0.0 1018579
12:00+27ссз565215 0.0 10181447
15:00+28сз5649100 0.0 10171947
18:00+26сз4663100 0.1 1017646
21:00+21сз3378100 0.2 101743